DW5249 Weather Reports


time (UTC)temp
C
wind
direction
speed
KPH
gust
KPH
rain 1hr
cm
rain 24hr
cm
rain mn
cm
humidity
%
barometer
mb
20260510073002 20 152 0.0 1.6 0.18 1.98 0.23 93 1011.8
20260510072503 20 152 0.0 0.0 0.18 1.98 0.23 93 1011.7
20260510072001 20 152 0.0 0.0 0.18 1.98 0.23 93 1011.7
20260510071501 20 152 0.0 0.0 0.18 1.98 0.23 93 1011.7
20260510071001 20 152 0.0 3.2 0.18 1.98 0.23 93 1011.7
20260510070600 20 152 0.0 3.2 0.20 1.98 0.23 93 1011.7
20260510070100 20 152 0.0 3.2 0.18 1.96 0.20 93 1011.5
20260510065600 20 152 0.0 3.2 0.18 1.96 0.20 93 1011.1
20260510065059 20 171 0.0 3.2 0.15 1.93 0.18 93 1010.9
20260510064558 20 290 0.0 3.2 0.10 1.88 0.13 93 1011.3
20260510064058 20 165 1.6 3.2 0.05 1.83 0.08 93 1011.3
20260510063557 20 218 0.0 1.6 0.05 1.83 0.08 93 1011.9
20260510063057 20 218 0.0 1.6 0.03 1.80 0.05 93 1011.7
20260510062557 20 218 0.0 3.2 0.03 1.80 0.05 93 1011.9
20260510062057 20 219 1.6 3.2 0.03 1.80 0.05 93 1012.0
20260510061557 20 214 0.0 1.6 0.03 1.80 0.05 93 1011.8
20260510061058 20 214 0.0 1.6 0.05 1.80 0.05 93 1011.9
20260510060555 20 219 0.0 1.6 0.03 1.78 0.03 93 1012.2
20260510060055 20 184 0.0 1.6 0.03 1.78 0.03 93 1012.1
20260510055554 20 184 0.0 1.6 0.03 1.78 0.03 93 1012.1
20260510055057 20 184 0.0 1.6 0.03 1.78 0.03 93 1012.2
20260510054555 20 184 0.0 1.6 0.03 1.78 0.03 93 1012.2
20260510054054 20 184 0.0 3.2 0.03 1.78 0.03 93 1012.3
20260510053553 20 184 0.0 3.2 0.03 1.78 0.03 93 1012.2
20260510053052 20 184 0.0 3.2 0.03 1.78 0.03 93 1012.2
20260510052551 20 184 0.0 3.2 0.03 1.78 0.03 93 1012.4
20260510052054 20 184 0.0 1.6 0.03 1.78 0.03 93 1012.5
20260510051552 20 184 0.0 3.2 0.03 1.78 0.03 93 1012.5
20260510051052 20 184 0.0 3.2 0.00 1.75 0.00 93 1012.5
20260510050550 20 243 0.0 1.6 0.00 1.75 0.00 93 1012.5
20260510050056 20 246 0.0 0.0 0.00 1.75 0.00 93 1012.7
20260510045549 20 246 0.0 0.0 0.00 1.78 0.00 93 1012.7
20260510045050 20 246 0.0 0.0 0.00 1.78 0.00 93 1012.7
20260510044556 20 246 0.0 0.0 0.00 1.78 0.00 93 1012.8
20260510044049 20 246 0.0 1.6 0.00 1.78 0.00 93 1012.7
20260510043549 20 246 0.0 1.6 0.00 1.78 0.00 93 1012.7
20260510043103 20 246 0.0 0.0 0.00 1.78 0.00 93 1012.8
20260510042548 20 246 0.0 1.6 0.00 1.78 0.00 92 1012.9
20260510042048 20 246 0.0 1.6 0.00 1.78 0.00 92 1012.9
20260510041548 20 246 0.0 3.2 0.00 1.78 0.00 92 1012.8
20260510041048 20 246 0.0 3.2 0.00 1.78 0.00 92 1012.9
20260510040546 20 246 0.0 0.0 0.00 1.78 0.00 92 1012.7
20260510040055 20 246 0.0 1.6 0.00 1.78 0.00 92 1012.6
20260510035545 20 246 0.0 1.6 0.00 1.78 1.78 93 1012.6
20260510035045 20 246 0.0 0.0 0.00 1.78 1.78 92 1012.6
20260510034547 20 246 0.0 0.0 0.00 1.78 1.78 92 1012.7
20260510034045 20 246 0.0 0.0 0.00 1.78 1.78 92 1012.8
20260510033544 20 246 0.0 0.0 0.00 1.78 1.78 92 1012.7
20260510033058 20 246 0.0 0.0 0.00 1.78 1.78 92 1012.7
20260510032547 20 246 0.0 0.0 0.00 1.78 1.78 92 1012.7
20260510032145 20 246 0.0 0.0 0.00 1.78 1.78 93 1012.7
20260510031549 20 246 0.0 0.0 0.00 1.78 1.78 92 1012.6
20260510031045 20 246 0.0 0.0 0.00 1.78 1.78 93 1012.6
20260510030543 20 246 0.0 0.0 0.00 1.78 1.78 93 1012.5
20260510030046 20 246 0.0 0.0 0.00 1.78 1.78 93 1012.4
20260510025545 20 246 0.0 0.0 0.00 1.78 1.78 93 1012.5
20260510025042 20 246 0.0 0.0 0.00 1.78 1.78 93 1012.5
20260510024543 20 246 0.0 1.6 0.00 1.78 1.78 93 1012.4
20260510024042 20 246 0.0 1.6 0.00 1.78 1.78 93 1012.3
20260510023542 20 246 0.0 0.0 0.00 1.78 1.78 92 1012.1
20260510023042 20 246 0.0 0.0 0.00 1.78 1.78 93 1012.0
20260510022542 20 246 0.0 0.0 0.00 1.78 1.78 92 1012.0
20260510022042 20 246 0.0 0.0 0.00 1.78 1.78 92 1012.0
20260510021542 20 246 0.0 0.0 0.00 1.78 1.78 92 1012.0
20260510021041 20 246 0.0 1.6 0.03 1.78 1.78 92 1012.0
20260510020542 20 246 0.0 1.6 0.03 1.78 1.78 92 1012.0
20260510020046 20 246 0.0 0.0 0.03 1.78 1.78 92 1012.0
20260510015541 20 246 0.0 0.0 0.03 2.03 1.78 92 1012.1
20260510015040 20 246 0.0 1.6 0.03 2.03 1.78 92 1011.9
20260510014545 20 246 0.0 3.2 0.03 2.03 1.78 92 1011.9
20260510014040 20 246 0.0 3.2 0.03 2.03 1.78 92 1011.9
20260510013540 20 246 0.0 1.6 0.03 2.03 1.78 92 1012.0
20260510013040 20 246 0.0 1.6 0.03 2.03 1.78 92 1012.1
20260510012542 20 245 0.0 0.0 0.03 2.03 1.78 92 1011.9
20260510012040 20 245 0.0 1.6 0.05 2.03 1.78 92 1011.7
20260510011543 20 245 0.0 1.6 0.05 2.03 1.78 92 1011.6
20260510011039 20 246 0.0 0.0 0.03 2.01 1.75 92 1011.7
20260510010538 20 246 0.0 3.2 0.03 2.01 1.75 92 1011.7
20260510010039 20 244 1.6 3.2 0.03 2.01 1.75 92 1011.7
20260510005539 20 242 1.6 3.2 0.03 2.01 1.75 92 1011.6
20260510005139 20 247 0.0 3.2 0.03 2.01 1.75 92 1011.5
20260510004539 20 247 0.0 4.8 0.03 2.01 1.75 92 1011.4
20260510004038 20 239 1.6 4.8 0.03 2.01 1.75 92 1011.5
20260510003538 20 243 0.0 3.2 0.03 2.01 1.75 92 1011.4
20260510003039 20 209 0.0 3.2 0.03 2.01 1.75 92 1011.5
20260510002541 20 206 0.0 0.0 0.03 2.01 1.75 92 1011.5
20260510002038 20 206 0.0 1.6 0.00 1.98 1.73 92 1011.6
20260510001541 20 206 0.0 1.6 0.03 1.98 1.73 92 1011.6
20260510001037 20 206 0.0 1.6 0.03 1.98 1.73 92 1011.6
20260510000540 20 344 0.0 0.0 0.03 1.98 1.73 92 1011.6
20260510000057 20 344 0.0 1.6 0.08 1.98 1.73 92 1011.4
20260509235538 20 344 0.0 1.6 0.10 1.98 1.73 92 1011.4
20260509235036 20 255 0.0 3.2 0.13 1.98 1.73 92 1011.3
20260509234549 20 255 0.0 4.8 0.13 1.98 1.73 92 1011.3
20260509234036 20 254 1.6 4.8 0.13 1.98 1.73 92 1011.2
20260509233537 20 279 1.6 4.8 0.13 1.98 1.73 92 1011.4
20260509233035 20 250 1.6 4.8 0.13 1.98 1.73 92 1011.4
20260509232535 20 249 1.6 4.8 0.13 1.98 1.73 92 1011.5
20260509232035 20 227 0.0 4.8 0.13 1.98 1.73 92 1011.4
20260509231534 20 249 1.6 4.8 0.10 1.96 1.70 92 1011.6
20260509231035 20 276 0.0 4.8 0.10 1.96 1.70 92 1011.5
20260509230537 20 243 0.0 4.8 0.10 1.93 1.68 92 1011.5
20260509230037 20 242 1.6 4.8 0.08 1.91 1.65 92 1011.5
20260509225535 20 253 1.6 4.8 0.05 1.88 1.63 92 1011.5
20260509225035 20 245 0.0 4.8 0.03 1.85 1.60 92 1011.4
20260509224534 20 240 3.2 4.8 0.03 1.85 1.60 92 1011.5
20260509224034 21 253 3.2 4.8 0.03 1.85 1.60 92 1011.5
20260509223533 21 248 0.0 4.8 0.03 1.85 1.60 92 1011.3
20260509223033 21 246 1.6 4.8 0.03 1.85 1.60 92 1011.4
20260509222533 21 262 0.0 1.6 0.03 1.85 1.60 92 1011.3
20260509222036 21 262 0.0 1.6 0.05 1.85 1.60 92 1011.3
20260509221533 21 262 0.0 1.6 0.05 1.85 1.60 92 1011.1
20260509221033 21 262 0.0 3.2 0.05 1.85 1.60 92 1011.1
20260509220532 21 262 0.0 3.2 0.03 1.83 1.57 92 1011.1
20260509220032 21 262 0.0 3.2 0.03 1.83 1.57 92 1011.3
20260509215532 21 262 0.0 1.6 0.03 1.83 1.57 92 1011.2
20260509215032 21 263 0.0 3.2 0.05 1.83 1.57 92 1011.2
20260509214534 21 263 0.0 3.2 0.05 1.83 1.57 92 1011.1
20260509214031 21 197 0.0 1.6 0.05 1.83 1.57 92 1010.9
20260509213533 21 96 0.0 1.6 0.05 1.83 1.57 92 1010.9
20260509213035 21 96 0.0 3.2 0.08 1.83 1.57 92 1010.7
20260509212531 21 96 0.0 3.2 0.08 1.83 1.57 92 1010.7
20260509212031 21 24 0.0 1.6 0.05 1.80 1.55 92 1010.8
20260509212001 21 24 0.0 1.6 0.05 1.80 1.55 92 1010.8
20260509211532 21 24 0.0 3.2 0.08 1.80 1.55 92 1010.9
20260509211030 21 241 0.0 3.2 0.08 1.80 1.55 92 1010.9
20260509210532 21 321 0.0 3.2 0.08 1.80 1.55 92 1010.8
20260509210038 21 165 0.0 3.2 0.08 1.80 1.55 92 1010.8
20260509205529 21 161 0.0 3.2 0.10 1.80 1.55 92 1010.8
20260509205029 21 9 0.0 3.2 0.08 1.78 1.52 92 1010.8
20260509204535 21 9 1.6 3.2 0.10 1.78 1.52 92 1010.8
20260509204030 21 124 0.0 3.2 0.10 1.78 1.52 92 1011.1
20260509203529 21 38 0.0 3.2 0.10 1.78 1.52 92 1011.2
20260509203029 20 18 0.0 1.6 0.08 1.75 1.50 92 1011.2
20260509202528 20 18 0.0 1.6 0.08 1.75 1.50 92 1011.4
20260509202029 20 222 0.0 1.6 0.08 1.75 1.50 92 1011.4
20260509201531 20 165 0.0 1.6 0.08 1.73 1.45 92 1011.6
20260509201030 20 168 0.0 1.6 0.08 1.73 1.45 92 1011.7
20260509200532 20 155 0.0 4.8 0.08 1.73 1.45 92 1011.8
20260509200028 20 156 0.0 4.8 0.08 1.73 1.45 92 1011.9
20260509195531 20 70 0.0 1.6 0.05 1.70 1.42 92 1011.9
20260509195027 20 9 0.0 1.6 0.03 1.68 1.42 92 1012.0
20260509194534 20 111 0.0 1.6 0.05 1.68 1.42 91 1012.0
20260509194027 20 136 0.0 1.6 0.05 1.68 1.42 91 1011.9
20260509193529 20 329 0.0 1.6 0.05 1.68 1.42 92 1011.9
20260509193029 21 335 0.0 1.6 0.05 1.68 1.42 92 1011.8
20260509192526 21 335 0.0 1.6 0.08 1.68 1.42 91 1011.8
20260509192028 21 190 0.0 3.2 0.08 1.68 1.42 92 1011.8
20260509191528 21 110 0.0 3.2 0.10 1.65 1.40 92 1011.6
20260509191026 20 120 0.0 3.2 0.25 1.65 1.40 91 1011.7
20260509190525 20 302 0.0 3.2 0.56 1.65 1.40 91 1011.9
20260509190025 20 59 0.0 6.4 0.79 1.65 1.40 91 1011.9
20260509185525 20 51 1.6 6.4 0.99 1.65 1.40 91 1011.9
20260509185025 20 355 1.6 6.4 1.24 1.65 1.40 91 1011.9
20260509184538 20 65 1.6 6.4 1.35 1.63 1.37 91 1011.8
20260509184024 20 324 0.0 3.2 1.35 1.63 1.37 91 1011.8
20260509183524 20 282 0.0 3.2 1.35 1.63 1.37 90 1011.9
20260509183026 20 5 0.0 3.2 1.35 1.63 1.37 90 1011.9
20260509182525 20 21 0.0 8.0 1.32 1.60 1.35 89 1011.8
20260509182024 20 355 0.0 8.0 1.32 1.60 1.35 88 1011.9
20260509181524 21 340 1.6 4.8 1.24 1.52 1.27 87 1011.9
20260509181024 22 338 1.6 4.8 1.12 1.40 1.14 88 1011.8
20260509180523 22 295 0.0 4.8 0.76 1.04 0.79 88 1011.9
20260509180023 22 282 0.0 4.8 0.56 0.84 0.58 87 1011.7
20260509175523 23 269 1.6 4.8 0.36 0.64 0.38 86 1011.7
20260509175022 23 313 0.0 6.4 0.10 0.38 0.13 84 1011.5
20260509174522 24 276 0.0 14.5 0.00 0.28 0.03 82 1011.5
20260509174022 24 277 3.2 16.1 0.00 0.28 0.03 81 1011.6
20260509173527 25 244 8.0 16.1 0.00 0.28 0.03 80 1011.5
20260509173021 25 267 1.6 11.3 0.00 0.28 0.03 79 1011.5
20260509172521 25 277 4.8 12.9 0.00 0.28 0.03 78 1011.6
20260509172021 25 265 6.4 12.9 0.00 0.28 0.03 79 1011.5
20260509171525 25 250 3.2 9.7 0.00 0.28 0.03 79 1011.5
20260509171021 25 219 6.4 11.3 0.00 0.28 0.03 78 1011.4
20260509170520 25 246 1.6 12.9 0.00 0.28 0.03 78 1011.5
20260509170020 25 242 6.4 12.9 0.00 0.28 0.03 79 1011.7
20260509165523 25 224 3.2 14.5 0.00 0.28 0.03 78 1011.7
20260509165021 25 263 6.4 16.1 0.00 0.28 0.03 77 1011.8
20260509164520 26 245 4.8 16.1 0.00 0.28 0.03 76 1011.8
20260509164019 26 267 3.2 11.3 0.00 0.28 0.03 75 1011.7
20260509163524 26 270 3.2 9.7 0.00 0.28 0.03 77 1011.7
20260509163022 26 13 1.6 8.0 0.00 0.28 0.03 78 1011.6
20260509162517 25 235 1.6 8.0 0.00 0.28 0.03 78 1011.6
20260509162016 25 133 1.6 9.7 0.00 0.28 0.03 79 1011.6
20260509161514 25 155 3.2 9.7 0.00 0.28 0.03 79 1011.7
20260509161013 24 238 1.6 4.8 0.00 0.28 0.03 80 1011.8
20260509160512 23 142 1.6 4.8 0.00 0.28 0.03 80 1011.8
20260509160013 23 269 0.0 4.8 0.00 0.28 0.03 82 1011.8
20260509155510 23 179 1.6 4.8 0.00 0.28 0.03 82 1011.7
20260509155009 23 134 1.6 4.8 0.00 0.28 0.03 82 1011.8
20260509154512 23 242 0.0 4.8 0.00 0.28 0.03 82 1011.7
20260509154109 23 182 1.6 4.8 0.00 0.28 0.03 82 1011.7
20260509153509 23 117 0.0 4.8 0.00 0.28 0.03 82 1011.7
20260509153022 23 245 1.6 4.8 0.00 0.28 0.03 82 1011.7
20260509152508 23 277 1.6 6.4 0.00 0.28 0.03 83 1011.6
20260509152017 23 44 1.6 6.4 0.00 0.28 0.03 83 1011.5
20260509151508 23 34 1.6 6.4 0.00 0.28 0.03 83 1011.6
20260509151007 23 50 1.6 11.3 0.00 0.28 0.03 84 1011.9
20260509150506 23 37 3.2 11.3 0.00 0.28 0.03 83 1011.9
20260509150005 22 309 0.0 6.4 0.00 0.28 0.03 85 1012.0
20260509145504 22 63 0.0 4.8 0.00 0.28 0.03 88 1012.0
20260509145003 21 113 1.6 4.8 0.00 0.28 0.03 87 1012.2
20260509144507 21 54 0.0 4.8 0.00 0.28 0.03 88 1012.4
20260509144003 21 54 1.6 4.8 0.00 0.28 0.03 88 1012.6
20260509143501 21 317 0.0 4.8 0.00 0.28 0.03 88 1012.5
20260509143133 21 317 0.0 4.8 0.00 0.28 0.03 88 1012.5
20260509142559 21 235 0.0 3.2 0.00 0.28 0.03 88 1012.7
20260509142103 21 229 0.0 1.6 0.00 0.28 0.03 88 1012.6
20260509141600 21 234 0.0 1.6 0.00 0.28 0.03 88 1012.6
20260509141100 21 316 0.0 1.6 0.00 0.28 0.03 88 1012.6
20260509140558 21 223 0.0 1.6 0.00 0.28 0.03 89 1012.6
20260509140106 21 255 0.0 1.6 0.00 0.28 0.03 89 1012.6
20260509135600 21 255 0.0 1.6 0.00 0.28 0.03 89 1012.5
20260509135102 21 209 0.0 3.2 0.00 0.28 0.03 89 1012.3
20260509134611 21 74 0.0 3.2 0.00 0.28 0.03 90 1012.2
20260509134056 20 59 0.0 3.2 0.00 0.28 0.03 90 1012.0
20260509133555 20 59 0.0 3.2 0.00 0.28 0.03 91 1012.0
20260509133055 20 306 0.0 3.2 0.00 0.28 0.03 91 1012.1
20260509132555 20 49 0.0 1.6 0.00 0.28 0.03 91 1012.1
20260509132058 20 274 0.0 1.6 0.00 0.28 0.03 92 1012.1
20260509131552 20 229 0.0 1.6 0.00 0.28 0.03 92 1012.1
20260509131052 20 229 0.0 1.6 0.00 0.28 0.03 92 1012.1
20260509130551 20 360 0.0 3.2 0.00 0.28 0.03 92 1012.0
20260509130057 20 19 1.6 3.2 0.00 0.28 0.03 92 1012.0
20260509125549 20 19 0.0 3.2 0.00 0.28 0.03 92 1011.8
20260509125048 20 275 0.0 3.2 0.00 0.28 0.03 92 1011.7
20260509124549 20 112 0.0 1.6 0.00 0.28 0.03 92 1011.8
20260509124048 20 129 0.0 1.6 0.00 0.28 0.03 92 1011.8
20260509123550 20 304 0.0 1.6 0.00 0.28 0.03 92 1011.6
20260509123101 19 58 0.0 3.2 0.00 0.28 0.03 92 1011.7
20260509122546 19 186 0.0 3.2 0.00 0.28 0.03 92 1011.6
20260509122046 20 5 0.0 1.6 0.00 0.28 0.03 92 1011.4
20260509121602 19 242 0.0 3.2 0.00 0.28 0.03 92 1011.1
20260509121049 19 132 0.0 3.2 0.00 0.28 0.03 92 1011.1
20260509120543 19 87 0.0 3.2 0.00 0.28 0.03 92 1011.2
20260509120043 19 87 0.0 0.0 0.00 0.28 0.03 92 1011.4
20260509115544 19 100 0.0 1.6 0.00 0.28 0.03 92 1011.4
20260509115042 19 19 0.0 1.6 0.00 0.28 0.03 92 1011.5
20260509114542 19 273 0.0 1.6 0.00 0.28 0.03 92 1011.6
20260509114044 18 273 0.0 3.2 0.00 0.28 0.03 92 1011.7
20260509113543 18 277 0.0 3.2 0.00 0.28 0.03 92 1011.5
20260509113041 18 277 0.0 3.2 0.00 0.28 0.03 92 1011.4
20260509113017 18 277 0.0 1.6 0.00 0.28 0.03 92 1011.4
20260509112539 18 316 0.0 1.6 0.00 0.28 0.03 92 1011.3
20260509112038 18 316 0.0 1.6 0.00 0.28 0.03 92 1011.1
20260509111554 18 316 0.0 1.6 0.00 0.28 0.03 92 1011.2
20260509111036 18 248 0.0 1.6 0.00 0.28 0.03 92 1011.0
20260509110534 18 282 0.0 0.0 0.00 0.28 0.03 92 1011.0
20260509110035 18 234 0.0 1.6 0.00 0.28 0.03 92 1011.1
20260509105534 18 221 0.0 1.6 0.00 0.28 0.03 92 1010.9
20260509105034 18 355 0.0 1.6 0.00 0.28 0.03 92 1010.9
20260509104541 18 165 0.0 1.6 0.00 0.28 0.03 92 1010.8
20260509104033 18 165 0.0 1.6 0.00 0.28 0.03 92 1010.7
20260509103532 18 165 0.0 1.6 0.00 0.28 0.03 92 1010.5
20260509103035 18 165 0.0 1.6 0.00 0.28 0.03 92 1010.4
20260509102533 18 5 0.0 0.0 0.00 0.28 0.03 92 1010.2
20260509102032 18 5 0.0 1.6 0.00 0.28 0.03 92 1010.0
20260509101551 18 5 0.0 1.6 0.00 0.28 0.03 92 1010.1
20260509101034 18 5 0.0 1.6 0.00 0.28 0.03 92 1010.1
20260509100536 18 5 0.0 1.6 0.00 0.28 0.03 92 1010.2
20260509100032 18 5 0.0 1.6 0.00 0.28 0.03 92 1010.1
20260509095531 18 5 0.0 1.6 0.00 0.28 0.03 92 1010.3
20260509095034 18 5 0.0 1.6 0.00 0.28 0.03 92 1010.3
20260509094537 18 5 0.0 4.8 0.00 0.28 0.03 92 1010.3
20260509094029 18 360 1.6 6.4 0.00 0.28 0.03 92 1010.3
20260509093529 18 33 1.6 9.7 0.00 0.28 0.03 92 1010.2
20260509093030 18 281 1.6 9.7 0.00 0.28 0.03 92 1010.2
20260509092529 18 248 0.0 4.8 0.00 0.28 0.03 92 1010.4
20260509092031 18 5 1.6 4.8 0.00 0.28 0.03 91 1010.4
20260509091537 18 350 1.6 4.8 0.00 0.28 0.03 92 1010.3
20260509091131 18 321 1.6 4.8 0.00 0.28 0.03 92 1010.0
20260509090527 18 313 1.6 3.2 0.00 0.28 0.03 92 1009.2
20260509090029 18 288 0.0 11.3 0.00 0.28 0.03 91 1008.9
20260509085527 18 245 4.8 12.9 0.00 0.28 0.03 91 1009.2
20260509085026 18 257 4.8 11.3 0.00 0.28 0.03 91 1009.2
20260509084526 18 247 1.6 11.3 0.00 0.28 0.03 91 1008.9
20260509084028 18 261 3.2 9.7 0.00 0.28 0.03 91 1009.1
20260509083525 18 281 1.6 8.0 0.00 0.28 0.03 91 1009.2
20260509083024 18 252 3.2 8.0 0.00 0.28 0.03 91 1009.2
20260509082526 18 252 4.8 8.0 0.00 0.28 0.03 91 1009.2
20260509082024 18 254 0.0 4.8 0.00 0.28 0.03 91 1009.1
20260509081527 18 250 1.6 11.3 0.00 0.28 0.03 91 1009.3
20260509081024 18 248 3.2 11.3 0.00 0.28 0.03 91 1009.6
20260509080522 18 249 1.6 9.7 0.00 0.28 0.03 91 1009.3
20260509080026 18 250 1.6 6.4 0.00 0.28 0.03 91 1009.3
20260509075522 18 294 0.0 6.4 0.00 0.28 0.03 91 1009.0
20260509075021 18 210 1.6 6.4 0.00 0.28 0.03 91 1009.2
20260509074531 18 145 0.0 4.8 0.00 0.28 0.03 91 1009.7
20260509074018 18 255 1.6 6.4 0.00 0.28 0.03 91 1010.4
20260509073517 18 257 1.6 3.2 0.00 0.28 0.03 91 1010.5